When you browse on this site, cookies collect data to enhance your experience and personalize the content and advertising you see.
Visit our Privacy Policy to learn more. By continuing to use the site, you agree to this use of cookies and data.
  • Em Portugal
  • Lista de países
  • Para 7 dias
  • Temperatura da água
  • Mapas de satélite
  • Mapa do tempo
  • Widgets de tempo
  • user-avatar
    Iniciar Sessão

    Previsão horária em Adelaide

    Hoje, 23 Maio, Quinta-feira

    Tempo Temperatura Precipitação Vento Pressão Humidade
    00:00 +15°C° 0 mm 1 m/s 765 mmHg 61%
    01:00 +15°C° 0 mm 1 m/s 765 mmHg 60%
    02:00 +15°C° 0 mm 1 m/s 764 mmHg 60%
    03:00 +15°C° 0 mm 2 m/s 764 mmHg 58%
    04:00 +15°C° 0 mm 2 m/s 764 mmHg 58%
    05:00 +15°C° 0 mm 2 m/s 764 mmHg 58%
    06:00 +16°C° 0 mm 2 m/s 764 mmHg 59%
    07:00 +17°C° 0 mm 2 m/s 763 mmHg 57%
    08:00 +19°C° 0 mm 3 m/s 763 mmHg 54%
    09:00 +20°C° 0 mm 3 m/s 763 mmHg 52%
    10:00 +22°C° 0 mm 3 m/s 763 mmHg 50%
    11:00 +23°C° 0 mm 4 m/s 763 mmHg 48%
    12:00 +25°C° 0 mm 4 m/s 762 mmHg 46%
    13:00 +23°C° 0 mm 4 m/s 762 mmHg 47%
    14:00 +23°C° 0 mm 4 m/s 761 mmHg 48%
    15:00 +23°C° 0 mm 4 m/s 761 mmHg 49%
    16:00 +22°C° 0 mm 3 m/s 761 mmHg 55%
    17:00 +20°C° 0 mm 2 m/s 761 mmHg 60%
    18:00 +19°C° 0 mm 1 m/s 762 mmHg 65%
    19:00 +19°C° 0 mm 1 m/s 761 mmHg 62%
    20:00 +19°C° 0 mm 1 m/s 761 mmHg 58%
    21:00 +18°C° 0 mm 2 m/s 761 mmHg 55%
    22:00 +18°C° 0.1 mm 2 m/s 761 mmHg 54%
    23:00 +18°C° 0.1 mm 2 m/s 760 mmHg 54%

    Amanhã, 24 Maio, Sexta-feira

    Tempo Temperatura Precipitação Vento Pressão Humidade
    00:00 +18°C° 0.1 mm 2 m/s 760 mmHg 53%
    01:00 +18°C° 0.7 mm 3 m/s 759 mmHg 59%
    02:00 +18°C° 0.7 mm 4 m/s 759 mmHg 64%
    03:00 +18°C° 0.7 mm 4 m/s 758 mmHg 70%
    04:00 +17°C° 0.2 mm 5 m/s 758 mmHg 67%
    05:00 +19°C° 0.2 mm 6 m/s 758 mmHg 64%
    06:00 +18°C° 0.2 mm 7 m/s 758 mmHg 61%
    07:00 +20°C° 0.1 mm 7 m/s 758 mmHg 58%
    08:00 +21°C° 0.1 mm 7 m/s 759 mmHg 55%
    09:00 +21°C° 0.1 mm 7 m/s 759 mmHg 52%
    10:00 +22°C° 0 mm 7 m/s 759 mmHg 53%
    11:00 +22°C° 0 mm 7 m/s 759 mmHg 53%
    12:00 +22°C° 0 mm 7 m/s 758 mmHg 54%
    13:00 +22°C° 0 mm 6 m/s 758 mmHg 59%
    14:00 +21°C° 0 mm 5 m/s 758 mmHg 65%
    15:00 +20°C° 0 mm 5 m/s 758 mmHg 70%
    16:00 +19°C° 0 mm 4 m/s 758 mmHg 72%
    17:00 +18°C° 0 mm 4 m/s 759 mmHg 75%
    18:00 +17°C° 0 mm 4 m/s 759 mmHg 78%
    19:00 +17°C° 0 mm 4 m/s 759 mmHg 78%
    20:00 +15°C° 0 mm 4 m/s 759 mmHg 79%
    21:00 +15°C° 0 mm 4 m/s 759 mmHg 80%
    22:00 +15°C° 0 mm 4 m/s 759 mmHg 80%
    23:00 +15°C° 0 mm 4 m/s 759 mmHg 80%

    Depois de amanhã, 25 Maio, Sábado

    Tempo Temperatura Precipitação Vento Pressão Humidade
    00:00 +15°C° 0 mm 4 m/s 759 mmHg 80%
    01:00 +15°C° 0.1 mm 4 m/s 759 mmHg 81%
    02:00 +15°C° 0.1 mm 4 m/s 759 mmHg 82%
    03:00 +15°C° 0.1 mm 5 m/s 758 mmHg 82%
    04:00 +15°C° 0.5 mm 5 m/s 758 mmHg 83%
    05:00 +15°C° 0.5 mm 5 m/s 758 mmHg 83%
    06:00 +15°C° 0.5 mm 5 m/s 758 mmHg 83%
    07:00 +15°C° 0.8 mm 5 m/s 758 mmHg 82%
    08:00 +15°C° 0.8 mm 5 m/s 759 mmHg 81%
    09:00 +15°C° 0.8 mm 5 m/s 759 mmHg 81%
    10:00 +16°C° 0.6 mm 5 m/s 759 mmHg 78%
    11:00 +16°C° 0.6 mm 5 m/s 758 mmHg 76%
    12:00 +17°C° 0.6 mm 5 m/s 758 mmHg 73%
    13:00 +16°C° 0.3 mm 5 m/s 758 mmHg 72%
    14:00 +16°C° 0.3 mm 5 m/s 758 mmHg 70%
    15:00 +16°C° 0.3 mm 5 m/s 758 mmHg 68%
    16:00 +15°C° 0 mm 5 m/s 758 mmHg 69%
    17:00 +15°C° 0 mm 5 m/s 758 mmHg 70%
    18:00 +14°C° 0 mm 5 m/s 759 mmHg 70%
    19:00 +14°C° 0 mm 5 m/s 759 mmHg 71%
    20:00 +13°C° 0 mm 5 m/s 759 mmHg 72%
    21:00 +13°C° 0 mm 5 m/s 760 mmHg 74%
    22:00 +13°C° 0.1 mm 5 m/s 760 mmHg 73%
    23:00 +13°C° 0.1 mm 5 m/s 760 mmHg 72%

    26 Maio, Domingo

    Tempo Temperatura Precipitação Vento Pressão Humidade
    00:00 +12°C° 0.1 mm 5 m/s 760 mmHg 71%
    01:00 +12°C° 0 mm 5 m/s 760 mmHg 71%
    02:00 +12°C° 0 mm 5 m/s 760 mmHg 72%
    03:00 +12°C° 0 mm 4 m/s 760 mmHg 72%
    04:00 +12°C° 0.1 mm 4 m/s 760 mmHg 73%
    05:00 +12°C° 0.1 mm 4 m/s 760 mmHg 73%
    06:00 +12°C° 0.1 mm 4 m/s 760 mmHg 74%
    07:00 +13°C° 0.1 mm 5 m/s 761 mmHg 70%
    08:00 +14°C° 0.1 mm 5 m/s 761 mmHg 66%
    09:00 +15°C° 0.1 mm 6 m/s 761 mmHg 62%
    10:00 +15°C° 0.1 mm 6 m/s 761 mmHg 62%
    11:00 +15°C° 0.1 mm 6 m/s 761 mmHg 62%
    12:00 +16°C° 0.1 mm 7 m/s 760 mmHg 62%
    13:00 +16°C° 0.1 mm 7 m/s 760 mmHg 63%
    14:00 +16°C° 0.1 mm 7 m/s 760 mmHg 63%
    15:00 +16°C° 0.1 mm 7 m/s 760 mmHg 64%
    16:00 +15°C° 0.1 mm 7 m/s 760 mmHg 66%
    17:00 +15°C° 0.1 mm 6 m/s 760 mmHg 69%
    18:00 +15°C° 0.1 mm 6 m/s 761 mmHg 71%
    19:00 +14°C° 0.1 mm 6 m/s 761 mmHg 72%
    20:00 +14°C° 0.1 mm 6 m/s 761 mmHg 72%
    21:00 +14°C° 0.1 mm 5 m/s 762 mmHg 73%
    22:00 +14°C° 0 mm 5 m/s 761 mmHg 73%
    23:00 +13°C° 0 mm 5 m/s 761 mmHg 74%

    27 Maio, Segunda-feira

    Tempo Temperatura Precipitação Vento Pressão Humidade
    00:00 +13°C° 0 mm 5 m/s 761 mmHg 74%
    01:00 +13°C° 0.1 mm 5 m/s 761 mmHg 74%
    02:00 +13°C° 0.1 mm 5 m/s 761 mmHg 75%
    03:00 +13°C° 0.1 mm 5 m/s 761 mmHg 75%
    04:00 +13°C° 0.1 mm 4 m/s 761 mmHg 76%
    05:00 +13°C° 0.1 mm 4 m/s 761 mmHg 76%
    06:00 +13°C° 0.1 mm 4 m/s 762 mmHg 77%
    07:00 +14°C° 0 mm 4 m/s 762 mmHg 73%
    08:00 +14°C° 0 mm 4 m/s 762 mmHg 70%
    09:00 +15°C° 0 mm 5 m/s 762 mmHg 66%
    10:00 +15°C° 0.1 mm 5 m/s 762 mmHg 65%
    11:00 +16°C° 0.1 mm 5 m/s 762 mmHg 63%
    12:00 +16°C° 0.1 mm 5 m/s 761 mmHg 62%
    13:00 +16°C° 0.1 mm 5 m/s 761 mmHg 64%
    14:00 +16°C° 0.1 mm 5 m/s 760 mmHg 66%
    15:00 +15°C° 0.1 mm 5 m/s 760 mmHg 68%
    16:00 +15°C° 0.2 mm 5 m/s 760 mmHg 70%
    17:00 +14°C° 0.2 mm 5 m/s 760 mmHg 73%
    18:00 +14°C° 0.2 mm 5 m/s 760 mmHg 76%
    19:00 +14°C° 0.1 mm 5 m/s 760 mmHg 77%
    20:00 +14°C° 0.1 mm 5 m/s 760 mmHg 77%
    21:00 +14°C° 0.1 mm 5 m/s 760 mmHg 77%
    22:00 +14°C° 0.1 mm 5 m/s 760 mmHg 78%
    23:00 +14°C° 0.1 mm 6 m/s 759 mmHg 79%

    28 Maio, Terça-feira

    Tempo Temperatura Precipitação Vento Pressão Humidade
    00:00 +14°C° 0.1 mm 6 m/s 759 mmHg 80%
    01:00 +14°C° 0.4 mm 6 m/s 759 mmHg 80%
    02:00 +14°C° 0.4 mm 6 m/s 758 mmHg 80%
    03:00 +15°C° 0.4 mm 6 m/s 758 mmHg 80%
    04:00 +15°C° 0.3 mm 6 m/s 758 mmHg 80%
    05:00 +15°C° 0.3 mm 6 m/s 758 mmHg 79%
    06:00 +14°C° 0.3 mm 6 m/s 758 mmHg 78%
    07:00 +15°C° 0.2 mm 7 m/s 758 mmHg 76%
    08:00 +15°C° 0.2 mm 7 m/s 758 mmHg 74%
    09:00 +16°C° 0.2 mm 7 m/s 758 mmHg 72%
    10:00 +16°C° 0.2 mm 8 m/s 758 mmHg 71%
    11:00 +16°C° 0.2 mm 8 m/s 758 mmHg 71%
    12:00 +16°C° 0.2 mm 8 m/s 757 mmHg 70%
    13:00 +16°C° 0.2 mm 8 m/s 757 mmHg 72%
    14:00 +15°C° 0.2 mm 8 m/s 757 mmHg 73%
    15:00 +15°C° 0.2 mm 8 m/s 756 mmHg 75%
    16:00 +15°C° 0.2 mm 7 m/s 757 mmHg 75%
    17:00 +15°C° 0.2 mm 7 m/s 757 mmHg 75%
    18:00 +15°C° 0.2 mm 7 m/s 757 mmHg 75%
    19:00 +14°C° 0.1 mm 7 m/s 758 mmHg 74%
    20:00 +14°C° 0.1 mm 7 m/s 758 mmHg 73%
    21:00 +12°C° 0.1 mm 7 m/s 758 mmHg 72%
    22:00 +12°C° 0.1 mm 7 m/s 758 mmHg 71%
    23:00 +11°C° 0.1 mm 7 m/s 759 mmHg 70%
    Mostrar mais